User: anonymous   Login
Location: Unspecified
(0.0000°N, 0.0000°E)
Time: 17:25:38
(UTC+00:00)
Language:

Oscar 18 - Orbit

View from above orbital plane
View from above orbital plane
View from above satellite
View from above satellite

Ground track
Ground track

The orbit data is extracted from the following two-line orbital elements,

1 20441U 90005F   18115.77690272  .00000005  00000-0  18275-4 0  9993
2 20441  98.6244  56.2318 0010718 319.3589  61.3871 14.32766006476251
Epoch (UTC): 25 April 2018 18:38:44
Eccentricity: 0.0010718
inclination: 98.6244°
perigee height: 775 km
apogee height: 790 km
right ascension of ascending node: 56.2318°
argument of perigee: 319.3589°
revolutions per day: 14.32766006
mean anomaly at epoch: 61.3871°
orbit number at epoch: 47625

The dashed part of the orbit path shows where the satellite is in the earth's shadow,  

DLR